Home > Weather > Jackson > Past weeks

Flag for USA Past Weather in Jackson, Mississippi, USA — Yesterday and Last 2 Weeks

Now
76 °F

Low clouds.


Feels Like: 76 °F
Forecast: 75 / 83 °F
Wind: 12 mph from Southeast

Location: Hawkins Field

Current Time: Jul 27, 2016 at 2:54:38 AM

Latest Report: Jul 27, 2016 at 1:53 AM


Visibility: 10 mi

Pressure: 29.93 "Hg

Humidity: 91%

Dew Point: 73 °F

Location of JacksonLocation

Past Weather in Jackson — Graph

°F

Jackson Temperature Yesterday

Maximum temperature yesterday: 92 °F (at 1:53 PM)
Minimum temperature yesterday: 75 °F (at 4:53 AM)
Average temperature yesterday: 81 °F

High & Low Weather Summary for the Past Weeks

 TemperatureHumidityPressure
High97 °F (Jul 21, 3:53 PM)97% (Jul 13, 6:53 AM)30.24 "Hg (Jul 13, 6:53 AM)
Low71 °F (Jul 15, 1:53 AM)37% (Jul 19, 4:53 PM)29.88 "Hg (Jul 26, 4:53 PM)
Average82 °F76%30.04 "Hg
* Reported Jul 12 12:53 AM — Jul 27 12:53 AM, Jackson, Weather by CustomWeather, © 2016

Note: Actual official high and low records may vary slightly from our data, if they occured in-between our weather recording intervals... More about our weather records

Advertising

Jackson Weather History for the Previous 24 Hours

Scroll right to see more
 ConditionsComfort  
Time TempWeatherWind HumidityBarometerVisibility
12:53 AM
Wed, Jul 27
76 °FPassing clouds.6 mph94%29.94 "Hg10 mi
11:53 PM
Tue, Jul 26
76 °FClear.3 mph94%29.94 "Hg10 mi
10:53 PM78 °FClear.No wind90%29.95 "Hg10 mi
9:53 PM77 °FPassing clouds.3 mph90%29.93 "Hg10 mi
8:53 PM78 °FScattered clouds.No wind90%29.92 "Hg10 mi
7:53 PM78 °FSunny.3 mph93%29.91 "Hg10 mi
6:53 PM79 °FLight rain. Scattered clouds.6 mph90%29.91 "Hg10 mi
6:03 PM79 °FThundershowers. Scattered clouds.5 mph90%29.93 "Hg10 mi
5:53 PM79 °FThunderstorms. Partly sunny.5 mph90%29.90 "Hg10 mi
4:53 PM81 °FThundershowers. Mostly cloudy.6 mph82%29.88 "Hg10 mi
3:53 PM82 °FLight rain. Broken clouds.9 mph79%29.90 "Hg5 mi
2:53 PM91 °FPartly sunny.9 mph54%29.90 "Hg10 mi
1:53 PM92 °FScattered clouds.13 mph51%29.91 "Hg10 mi
12:53 PM91 °FPartly sunny.7 mph56%29.93 "Hg10 mi
11:53 AM90 °FPartly sunny.10 mph57%29.95 "Hg10 mi
10:53 AM89 °FScattered clouds.9 mph59%29.97 "Hg10 mi
9:53 AM85 °FPartly sunny.10 mph68%29.98 "Hg10 mi
8:53 AM83 °FSunny.7 mph74%29.97 "Hg10 mi
7:53 AM80 °FSunny.5 mph79%29.98 "Hg10 mi
6:53 AM76 °FClear.5 mph88%29.97 "Hg10 mi
5:53 AM75 °FClear.No wind90%29.96 "Hg10 mi
4:53 AM75 °FClear.No wind94%29.95 "Hg10 mi
3:53 AM76 °FClear.5 mph91%29.94 "Hg10 mi
2:53 AM76 °FClear.5 mph91%29.93 "Hg10 mi
Weather by CustomWeather, © 2016

See weather overviewHow to use our weather pages